Hickory, NC

10:16 PM EDT on April 22, 2018 (GMT -0400)
Hickory Regional

Weather History for KHKY - January, 2015

Change the Weather History Date:

Saturday, January 3, 2015

  Actual Average Record
Temperature  
Mean Temperature 45 °F -  
Max Temperature 46 °F 49 °F 73 °F (1997)
Min Temperature 44 °F 30 °F 11 °F (1979)
Degree Days  
Heating Degree Days 20    
Moisture  
Dew Point 44 °F    
Average Humidity 95    
Maximum Humidity 100    
Minimum Humidity 83    
Precipitation  
Precipitation 0.58 in - - ()
Sea Level Pressure  
Sea Level Pressure 30.23 in    
Wind  
Wind Speed 3 mph (NNE)    
Max Wind Speed 7 mph    
Max Gust Speed -    
Visibility 2 miles    
Events Fog , Rain    
Averages and records for this station are not official NWS values.
T = Trace of Precipitation, MM = Missing Value Source: NWS Daily Summary

Daily Weather History Graph

Daily Weather History Graph

Search for Another Location

Airport or City:

Astronomy

Jan. 03, 2015 Rise Set
Actual Time 7:35 AM EST 5:24 PM EST
Civil Twilight 7:07 AM EST 5:52 PM EST
Nautical Twilight 6:35 AM EST 6:24 PM EST
Astronomical Twilight 6:04 AM EST 6:55 PM EST
Moon 4:29 PM EST (1/3) 5:58 AM EST (1/3)
Length of Visible Light 10h 45m
Length of Day
9h 48m
Waxing Gibbous, 98% of the Moon is Illuminated
Jan 3
Waxing Gibbous
Jan 4
Full
Jan 13
Last Quarter
Jan 20
New
Jan 26
First Quarter

Hourly Weather History & Observations

Time (EST) Temp. Windchill Dew Point Humidity Pressure Visibility Wind Dir Wind Speed Gust Speed Precip Events Conditions
12:53 AM 46.0 °F 44.8 °F 41.0 °F 83% 30.28 in 6.0 mi NE 3.5 mph - 0.00 in Rain Rain
1:12 AM 46.0 °F - 42.1 °F 86% 30.33 in 5.0 mi Calm Calm - 0.03 in Rain Light Rain
1:43 AM 45.0 °F - 43.0 °F 93% 30.32 in 4.0 mi Calm Calm - 0.09 in Rain Rain
1:53 AM 45.0 °F - 43.0 °F 93% 30.30 in 4.0 mi Calm Calm - 0.09 in Rain Light Rain
2:53 AM 45.0 °F - 42.1 °F 90% 30.29 in 7.0 mi Calm Calm - 0.08 in Rain Light Rain
3:53 AM 45.0 °F - 43.0 °F 93% 30.30 in 5.0 mi Calm Calm - 0.02 in Rain Light Rain
4:53 AM 45.0 °F - 43.0 °F 93% 30.31 in 5.0 mi Calm Calm - 0.02 in Rain Light Rain
5:46 AM 44.1 °F 41.5 °F 42.1 °F 93% 30.34 in 6.0 mi NNE 4.6 mph - 0.00 in   Overcast
5:53 AM 44.1 °F 41.5 °F 42.1 °F 93% 30.32 in 6.0 mi NNE 4.6 mph - 0.00 in   Overcast
6:06 AM 44.1 °F 40.8 °F 42.1 °F 93% 30.34 in 6.0 mi NNE 5.8 mph - N/A   Overcast
6:35 AM 44.1 °F 41.5 °F 42.1 °F 93% 30.35 in 1.8 mi NNE 4.6 mph - N/A   Overcast
6:53 AM 44.1 °F 41.5 °F 42.1 °F 93% 30.33 in 1.2 mi NNE 4.6 mph - N/A   Overcast
7:53 AM 44.1 °F 40.8 °F 42.1 °F 93% 30.34 in 1.8 mi NE 5.8 mph - N/A   Overcast
8:17 AM 44.1 °F 42.5 °F 42.1 °F 93% 30.37 in 0.8 mi NNE 3.5 mph - N/A   Overcast
8:53 AM 44.1 °F 41.5 °F 43.0 °F 96% 30.35 in 0.5 mi NE 4.6 mph - N/A Fog Fog
9:53 AM 44.1 °F 40.1 °F 43.0 °F 96% 30.35 in 0.8 mi NNE 6.9 mph - N/A   Overcast
10:01 AM 45.0 °F 42.6 °F 43.0 °F 93% 30.37 in 1.0 mi NNE 4.6 mph - 0.00 in Rain Light Rain
10:35 AM 45.0 °F 42.6 °F 43.0 °F 93% 30.36 in 2.0 mi NE 4.6 mph - 0.01 in   Overcast
10:44 AM 45.0 °F 41.8 °F 43.0 °F 93% 30.36 in 1.8 mi NE 5.8 mph - 0.01 in   Overcast
10:53 AM 45.0 °F 41.8 °F 43.0 °F 93% 30.34 in 2.0 mi NE 5.8 mph - 0.01 in   Overcast
11:01 AM 45.0 °F 41.2 °F 43.0 °F 93% 30.35 in 1.5 mi ENE 6.9 mph - N/A   Overcast
11:53 AM 45.0 °F 43.5 °F 43.0 °F 93% 30.30 in 1.2 mi NNE 3.5 mph - N/A   Overcast
12:53 PM 45.0 °F 42.6 °F 44.1 °F 97% 30.26 in 1.0 mi NNE 4.6 mph - 0.01 in   Overcast
1:53 PM 45.0 °F 42.6 °F 44.1 °F 97% 30.23 in 1.0 mi North 4.6 mph - 0.01 in Rain Light Rain
2:29 PM 46.0 °F 43.9 °F 45.0 °F 96% 30.22 in 2.5 mi NNE 4.6 mph - 0.01 in Rain Light Rain
2:39 PM 46.0 °F 43.9 °F 44.1 °F 93% 30.23 in 1.8 mi NE 4.6 mph - 0.01 in Rain Light Rain
2:53 PM 46.0 °F 43.9 °F 44.1 °F 93% 30.20 in 2.5 mi NNE 4.6 mph - 0.01 in   Overcast
3:06 PM 46.0 °F 43.9 °F 45.0 °F 96% 30.23 in 1.5 mi North 4.6 mph - N/A   Overcast
3:31 PM 46.0 °F 42.5 °F 45.0 °F 96% 30.21 in 3.0 mi NNE 6.9 mph - 0.04 in Rain Light Rain
3:46 PM 46.0 °F 43.1 °F 44.1 °F 93% 30.21 in 1.8 mi North 5.8 mph - 0.08 in Rain Heavy Rain
3:53 PM 46.0 °F 43.9 °F 44.1 °F 93% 30.19 in 1.5 mi North 4.6 mph - 0.09 in Rain Rain
3:58 PM 46.0 °F 43.1 °F 44.1 °F 93% 30.21 in 3.0 mi North 5.8 mph - 0.01 in Rain Light Rain
4:07 PM 46.0 °F 43.9 °F 44.1 °F 93% 30.20 in 2.5 mi NNE 4.6 mph - 0.03 in Rain Rain
4:30 PM 45.0 °F 42.6 °F 44.1 °F 97% 30.21 in 1.8 mi North 4.6 mph - 0.09 in Rain Rain
4:47 PM 44.6 °F 43.1 °F 44.6 °F 100% 30.22 in 3.0 mi NNW 3.5 mph - 0.12 in Rain Light Rain
4:53 PM 45.0 °F - 44.1 °F 97% 30.20 in 3.0 mi Calm Calm - 0.13 in Rain Light Rain
4:57 PM 45.0 °F - 44.1 °F 97% 30.22 in 1.8 mi Calm Calm - 0.01 in Rain Rain
5:07 PM 45.0 °F 43.5 °F 44.1 °F 97% 30.21 in 2.5 mi North 3.5 mph - 0.01 in Rain Light Rain
5:16 PM 45.0 °F 43.5 °F 44.1 °F 97% 30.20 in 4.0 mi North 3.5 mph - 0.01 in Rain Light Rain
5:21 PM 45.0 °F - 44.1 °F 97% 30.20 in 4.0 mi Calm Calm - 0.01 in Rain Light Rain
5:49 PM 44.6 °F 43.1 °F 44.6 °F 100% 30.21 in 2.5 mi NW 3.5 mph - 0.02 in Rain Light Rain
5:53 PM 45.0 °F 43.5 °F 44.1 °F 97% 30.19 in 2.5 mi NNW 3.5 mph - 0.02 in Rain Light Rain
6:00 PM 45.0 °F 43.5 °F 44.1 °F 97% 30.21 in 3.0 mi NNW 3.5 mph - 0.00 in Rain Light Rain
6:12 PM 45.0 °F 43.5 °F 44.1 °F 97% 30.22 in 2.5 mi NW 3.5 mph - 0.00 in Rain Light Rain
6:18 PM 45.0 °F - 44.1 °F 97% 30.21 in 3.0 mi Calm Calm - 0.01 in Rain Light Rain
6:26 PM 45.0 °F - 44.1 °F 97% 30.21 in 2.5 mi Calm Calm - 0.01 in Rain Light Rain
6:40 PM 45.0 °F - 43.0 °F 93% 30.21 in 3.0 mi Calm Calm - 0.01 in   Overcast
6:53 PM 45.0 °F - 44.1 °F 97% 30.19 in 3.0 mi Calm Calm - 0.02 in Rain Light Rain
7:10 PM 45.0 °F - 44.1 °F 97% 30.20 in 2.5 mi Calm Calm - 0.00 in Rain Light Rain
7:14 PM 45.0 °F 43.5 °F 44.1 °F 97% 30.20 in 2.5 mi North 3.5 mph - 0.00 in Rain Light Rain
7:29 PM 45.0 °F 43.5 °F 44.1 °F 97% 30.20 in 1.8 mi North 3.5 mph - 0.00 in   Overcast
7:41 PM 45.0 °F - 44.1 °F 97% 30.20 in 0.8 mi Calm Calm - 0.00 in   Overcast
7:53 PM 45.0 °F - 44.1 °F 97% 30.18 in 0.5 mi Calm Calm - 0.00 in Fog Fog
8:00 PM 45.0 °F - 45.0 °F 100% 30.20 in 0.8 mi Calm Calm - N/A   Mist
8:07 PM 45.0 °F - 44.1 °F 97% 30.20 in 1.2 mi Calm Calm - 0.00 in Rain Light Rain
8:17 PM 45.0 °F - 44.1 °F 97% 30.20 in 3.0 mi Calm Calm - 0.00 in   Overcast
8:26 PM 45.0 °F - 44.1 °F 97% 30.20 in 3.0 mi Calm Calm - 0.00 in   Overcast
8:34 PM 46.0 °F - 45.0 °F 96% 30.20 in 2.5 mi Calm Calm - 0.01 in Rain Light Rain
8:53 PM 46.0 °F - 44.1 °F 93% 30.17 in 2.0 mi Calm Calm - 0.01 in   Overcast
9:03 PM 46.0 °F - 44.1 °F 93% 30.19 in 2.0 mi Calm Calm - N/A   Overcast
9:09 PM 46.0 °F - 44.1 °F 93% 30.18 in 1.5 mi Calm Calm - N/A   Overcast
9:16 PM 46.0 °F - 44.1 °F 93% 30.17 in 1.5 mi Calm Calm - N/A   Overcast
9:29 PM 46.0 °F - 44.1 °F 93% 30.18 in 1.8 mi Calm Calm - 0.01 in Rain Light Rain
9:31 PM 46.0 °F - 44.1 °F 93% 30.18 in 2.0 mi Calm Calm - 0.01 in Rain Light Rain
9:51 PM 44.6 °F - 44.6 °F 100% 30.17 in 3.0 mi Calm Calm - 0.01 in   Overcast
9:53 PM 45.0 °F - 44.1 °F 97% 30.15 in 3.0 mi Calm Calm - 0.01 in   Overcast
10:43 PM 45.0 °F - 44.1 °F 97% 30.15 in 2.5 mi Calm Calm - 0.01 in Rain Light Rain
10:50 PM 44.6 °F - 44.6 °F 100% 30.15 in 1.5 mi Calm Calm - 0.01 in Rain Light Rain
10:53 PM 45.0 °F 43.5 °F 44.1 °F 97% 30.13 in 1.2 mi North 3.5 mph - 0.01 in Rain Light Rain
11:02 PM 45.0 °F 43.5 °F 44.1 °F 97% 30.14 in 0.5 mi NNE 3.5 mph - 0.01 in Fog , Rain Light Rain
11:23 PM 45.0 °F 42.6 °F 44.1 °F 97% 30.13 in 1.2 mi NE 4.6 mph - 0.01 in Rain Light Rain
11:49 PM 44.6 °F - 44.6 °F 100% 30.14 in 3.0 mi Calm Calm - 0.04 in Rain Light Rain
11:53 PM 45.0 °F 43.5 °F 44.1 °F 97% 30.13 in 4.0 mi WNW 3.5 mph - 0.04 in Rain Light Rain